{"data":{"norad_id":61509,"intl_designator":"2024-183A","name":"STARLINK-32174","alt_names":[],"object_type":"PAYLOAD","status":"ACTIVE","operator":null,"country":"US","launch_date":"2024-10-15","launch_site_code":"AFETR","launch_vehicle":null,"mission":null,"orbit_class":"UNKNOWN","rcs_meters":null,"size_class":null,"mass_kg":null,"dimensions":null,"purposes":["comms"],"wikipedia_slug":null,"has_3d_model":false,"image_url":null,"decayed_at":null,"tle_current":{"epoch":"2026-09-21T18:49:20.082144Z","epoch_age_seconds":81409,"freshness":"FRESH","line1":"1 61509U 24183A   26264.78426021  .00000813  00000+0  35208-4 0  9992","line2":"2 61509  53.1616 295.4032 0001068  82.2523 277.8600 15.34392618109908","mean_motion":15.34392618,"eccentricity":0.0001068,"inclination_deg":53.1616,"raan_deg":295.4032,"arg_perigee_deg":82.2523,"mean_anomaly_deg":277.86,"bstar":3.5208e-5,"rev_number":10990,"period_min":93.848209585169,"perigee_km":461.99457707381,"apogee_km":463.4557852357,"semimajor_km":6840.8621811548,"source":"CELESTRAK","updated_at":"2026-09-22T09:00:49.353771Z"}}}